Flag for U.S.A. Weather past 2 weeks in Des Moines, Iowa, U.S.A.

Now
51 °F

Fog.


Feels Like: 48 °F
Forecast: 52 / 74 °F
Wind: 8 mph from South

Location: Des Moines International Airport

Current Time: Oct 24, 2014 at 3:18:31 AM

Latest Report: Oct 24, 2014 at 2:54 AM


Visibility: 0 mi

Pressure: 30.02 "Hg

Humidity: 92%

Dew point: 49 °F

Location of Des MoinesLocation

Historic Weather in Des Moines — Graph

°F

Des Moines temperature yesterday

Maximum temperature yesterday: 72 °F (at 3:54 PM)
Minimum temperature yesterday: 53 °F (at 3:54 AM)
Average temperature yesterday: 59 °F

Past Weeks' High & Low Weather Summary

 TemperatureHumidityPressure
High75 °F (Oct 16, 2:54 PM)97% (Oct 13, 5:54 AM)30.27 "Hg (Oct 13, 5:54 AM)
Low38 °F (Oct 11, 7:54 AM)29% (Oct 20, 3:54 PM)29.00 "Hg (Oct 17, 12:20 AM)
Average54 °F67%30.00 "Hg
* Reported Oct 9 1:54 AM — Oct 24 1:54 AM, Des Moines, Weather by CustomWeather, © 2014

Note: Actual official high and low records may vary slightly from our data, if they occured in-between our weather recording intervals... More about our weather records

Advertising

Des Moines weather history for previous 24 hours

 ConditionsComfort  
Time TempWeatherWind HumidityBarometerVisibility
1:54 AM
Oct 24
52 °FFog.5 mph97%30.02 "Hg0 mi
12:54 AM53 °FFog.8 mph96%30.03 "Hg0 mi
11:54 PM
Oct 23
55 °FFog.9 mph93%30.03 "Hg1 mi
10:54 PM55 °FFog.9 mph93%30.03 "Hg4 mi
9:54 PM56 °FFog.7 mph93%30.05 "Hg5 mi
8:54 PM58 °FPassing clouds.8 mph87%30.03 "Hg8 mi
7:54 PM60 °FPassing clouds.8 mph83%30.03 "Hg10 mi
6:54 PM62 °FPassing clouds.7 mph67%30.02 "Hg10 mi
5:54 PM69 °FSunny.No wind47%29.99 "Hg10 mi
4:54 PM72 °FPassing clouds.3 mph44%29.99 "Hg10 mi
3:54 PM72 °FPassing clouds.5 mph48%30.00 "Hg10 mi
2:54 PM70 °FPassing clouds.5 mph64%30.00 "Hg10 mi
1:54 PM68 °FBroken clouds.No wind70%30.01 "Hg10 mi
12:54 PM67 °FOvercast.10 mph79%30.03 "Hg9 mi
11:54 AM63 °FFog.6 mph87%30.04 "Hg6 mi
10:54 AM59 °FLow clouds.8 mph90%30.05 "Hg7 mi
9:54 AM56 °FBroken clouds.8 mph90%30.05 "Hg10 mi
9:04 AM55 °FMostly cloudy.7 mph90%30.05 "Hg10 mi
8:54 AM55 °FMostly cloudy.7 mph90%30.05 "Hg10 mi
8:03 AM54 °FLight rain. Mostly cloudy.7 mph90%30.04 "Hg8 mi
7:54 AM55 °FDrizzle. Mostly cloudy.7 mph87%30.03 "Hg10 mi
6:54 AM54 °FOvercast.5 mph86%30.04 "Hg10 mi
5:54 AM53 °FOvercast.9 mph86%30.03 "Hg10 mi
4:54 AM53 °FOvercast.12 mph86%30.04 "Hg10 mi
3:54 AM53 °FOvercast.8 mph86%30.06 "Hg10 mi
Weather by CustomWeather, © 2014

See weather overviewHow to use our weather pages